Flag for Mongolia Weather past 2 weeks in Ulaanbaatar, Mongolia

Now
57 °F

Clear.


Feels Like: 57 °F
Forecast: 57 / 76 °F
Wind: 1 mph from North

Location: Ulan-Bator

Current Time: Jul 30, 2015 at 2:03:26 AM

Latest Report: Jul 30, 2015 at 1:30 AM


Visibility: 10 mi

Pressure: 29.98 "Hg (25.69 "Hg at 1298m altitude)

Humidity: 72%

Dew point: 48 °F

Location of UlaanbaatarLocation

Historic Weather in Ulaanbaatar — Graph

°F

Ulaanbaatar temperature yesterday

Maximum temperature yesterday: 73 °F (at 6:00 PM)
Minimum temperature yesterday: 52 °F (at 1:30 AM)
Average temperature yesterday: 62 °F

Past Weeks' High & Low Weather Summary

 TemperatureHumidityPressure
High86 °F (Jul 23, 4:30 PM)94% (Jul 16, 5:00 AM)30.07 "Hg (Jul 16, 5:00 AM)
Low50 °F (Jul 23, 6:00 AM)21% (Jul 26, 6:30 PM)29.65 "Hg (Jul 27, 5:00 PM)
Average65 °F66%29.86 "Hg
* Reported Jul 15 1:00 AM — Jul 30 1:00 AM, Ulaanbaatar, Weather by CustomWeather, © 2015

Note: Actual official high and low records may vary slightly from our data, if they occured in-between our weather recording intervals... More about our weather records

Advertising

Ulaanbaatar weather history for previous 24 hours

 ConditionsComfort  
Time TempWeatherWind HumidityBarometerVisibility
1:00 AM
Thu, Jul 30
55 °FClear.1 mph82%29.95 "Hg10 mi
12:30 AM57 °FClear.1 mph77%29.95 "Hg10 mi
12:00 AM61 °FClear.3 mph63%29.95 "Hg10 mi
11:30 PM
Wed, Jul 29
57 °FClear.6 mph77%29.95 "Hg10 mi
11:00 PM59 °FClear.8 mph72%29.95 "Hg10 mi
10:30 PM59 °FSunny.6 mph77%29.95 "Hg10 mi
10:00 PM61 °FSunny.8 mph72%29.95 "Hg10 mi
9:30 PM64 °FPassing clouds.6 mph68%29.92 "HgN/A
9:00 PM68 °FPassing clouds.6 mph56%29.92 "HgN/A
8:30 PM72 °FPassing clouds.10 mph47%29.92 "HgN/A
8:00 PM72 °FPassing clouds.3 mph47%29.92 "HgN/A
7:30 PM72 °FScattered clouds.6 mph44%29.89 "HgN/A
7:00 PM72 °FScattered clouds.3 mph47%29.92 "HgN/A
6:30 PM73 °FScattered clouds.1 mph47%29.92 "HgN/A
6:00 PM73 °FScattered clouds.1 mph41%29.92 "HgN/A
5:30 PM72 °FScattered clouds.3 mph44%29.89 "HgN/A
5:00 PM72 °FScattered clouds.3 mph50%29.92 "HgN/A
4:30 PM70 °FScattered clouds.3 mph50%29.92 "HgN/A
4:00 PM70 °FScattered clouds.3 mph53%29.92 "HgN/A
3:30 PM70 °FPartly sunny.3 mph53%29.92 "HgN/A
3:00 PM70 °FPartly sunny.3 mph53%29.92 "HgN/A
2:30 PM70 °FScattered clouds.1 mph53%29.89 "HgN/A
2:00 PM68 °FScattered clouds.3 mph56%29.89 "HgN/A
1:30 PM68 °FPassing clouds.6 mph60%29.89 "HgN/A
1:00 PM68 °FScattered clouds.6 mph56%29.89 "HgN/A
12:00 PM68 °FPassing clouds.1 mph60%29.89 "HgN/A
11:30 AM66 °FPassing clouds.1 mph56%29.89 "HgN/A
11:00 AM64 °FPassing clouds.3 mph60%29.89 "HgN/A
10:30 AM63 °FPassing clouds.3 mph68%29.89 "HgN/A
10:00 AM61 °FPassing clouds.3 mph68%29.89 "HgN/A
9:30 AM61 °FPassing clouds.3 mph68%29.86 "HgN/A
9:00 AM59 °FPassing clouds.1 mph72%29.86 "HgN/A
8:30 AM57 °FPassing clouds.1 mph77%29.86 "HgN/A
8:00 AM57 °FPassing clouds.No wind77%29.86 "HgN/A
7:30 AM54 °FPassing clouds.No wind88%29.86 "HgN/A
7:00 AM54 °FPassing clouds.1 mph88%29.86 "HgN/A
6:30 AM52 °FPassing clouds.No wind88%29.86 "HgN/A
6:00 AM54 °FPassing clouds.No wind88%29.86 "HgN/A
5:30 AM55 °FPassing clouds.No wind82%29.83 "HgN/A
5:00 AM55 °FPassing clouds.No wind82%29.83 "HgN/A
4:30 AM54 °FPassing clouds.No wind94%29.83 "HgN/A
4:00 AM55 °FPassing clouds.No wind82%29.83 "HgN/A
3:30 AM52 °FPassing clouds.1 mph94%29.83 "HgN/A
3:00 AM54 °FPassing clouds.No wind88%29.83 "HgN/A
2:30 AM52 °FClear.No wind94%29.83 "Hg10 mi
2:00 AM54 °FClear.1 mph88%29.83 "Hg10 mi
Weather by CustomWeather, © 2015

See weather overviewHow to use our weather pages